Location: Chittendens Corners
(41.2320°N, 81.4940°W)
Time: 07:38:57
(UTC+00:00)

Cosmos 1076 Rocket - Pass Details

Date: 29 October 2020
Orbit: 589 x 613 km, 82.5° (Epoch: 28 November)

Event Time Altitude Azimuth Distance (km) Brightness Sun altitude
Rises 23:18:38 0° 4° (N) 2,832 6.8 -10.7°
Reaches altitude 10° 23:21:10 10° 18° (NNE) 1,927 5.8 -11.2°
Maximum altitude 23:24:42 25° 75° (ENE) 1,209 4.5 -11.9°
Drops below altitude 10° 23:28:13 10° 131° (SE) 1,922 5.7 -12.5°
Sets 23:30:44 0° 144° (SE) 2,822 6.7 -13.0°
